Latest Weather Observations for Sellicks Hill

IDS60901

Issued at 4:01 am CST Monday 25 July 2016 (issued every 10 minutes, with the page automatically refreshed every 10 minutes)

About weather observations | Map of Adelaide area stations | Latest observations for Adelaide area | Other Formats
Station Details ID: 023886 Name: MOUNT TERRIBLE RADAR Lat: -35.33 Lon: 138.50 Height: 385.7 m
Data from the previous 72 hours. | See also: Recent months for locations in South Australia
Date/Time
CST
Temp
°C
App
Temp
°C
Dew
Point
°C
Rel
Hum
%
Delta-T
°C
Wind Press
QNH
hPa
Press
MSL
hPa
Rain since
9am
mm
Dir  Spd
km/h
Gust
km/h
Spd
kts
Gust
kts
25/04:00am - - - - - WNW 13 22 7 12 - - -
25/03:30am - - - - - WNW 13 26 7 14 - - -
25/03:00am - - - - - WNW 15 32 8 17 - - -
25/02:30am - - - - - W 13 24 7 13 - - -
25/02:00am - - - - - W 13 28 7 15 - - -
25/01:30am - - - - - W 15 26 8 14 - - -
25/01:00am - - - - - W 11 32 6 17 - - -
25/12:30am - - - - - W 13 32 7 17 - - -
25/12:00am - - - - - W 13 35 7 19 - - -
 
Date/Time
CST
Temp
°C
App
Temp
°C
Dew
Point
°C
Rel
Hum
%
Delta-T
°C
Wind Press
QNH
hPa
Press
MSL
hPa
Rain since
9am
mm
Dir  Spd
km/h
Gust
km/h
Spd
kts
Gust
kts
24/11:30pm - - - - - W 13 28 7 15 - - -
24/11:00pm - - - - - W 13 32 7 17 - - -
24/10:30pm - - - - - W 17 39 9 21 - - -
24/10:00pm - - - - - W 20 46 11 25 - - -
24/09:30pm - - - - - W 19 44 10 24 - - -
24/09:00pm - - - - - W 20 46 11 25 - - -
24/08:30pm - - - - - W 19 43 10 23 - - -
24/08:00pm - - - - - W 20 43 11 23 - - -
24/07:30pm - - - - - W 19 41 10 22 - - -
24/07:00pm - - - - - W 26 48 14 26 - - -
24/06:30pm - - - - - W 30 56 16 30 - - -
24/06:25pm - - - - - W 28 50 15 27 - - -
24/06:00pm - - - - - WNW 26 44 14 24 - - -
24/05:30pm - - - - - WNW 28 46 15 25 - - -
24/05:00pm - - - - - WNW 33 54 18 29 - - -
24/04:32pm - - - - - NW 28 59 15 32 - - -
24/04:30pm - - - - - NW 26 59 14 32 - - -
24/04:01pm - - - - - NW 28 54 15 29 - - -
24/04:00pm - - - - - NW 26 46 14 25 - - -
24/03:36pm - - - - - NW 28 52 15 28 - - -
24/03:30pm - - - - - NW 22 41 12 22 - - -
24/03:00pm - - - - - NW 19 41 10 22 - - -
24/02:30pm - - - - - NW 20 50 11 27 - - -
24/02:00pm - - - - - NW 24 43 13 23 - - -
24/01:30pm - - - - - WNW 28 48 15 26 - - -
24/01:13pm - - - - - WNW 26 59 14 32 - - -
24/01:00pm - - - - - NW 15 32 8 17 - - -
24/12:30pm - - - - - NW 26 46 14 25 - - -
24/12:00pm - - - - - NW 26 50 14 27 - - -
24/11:46am - - - - - NW 28 48 15 26 - - -
24/11:30am - - - - - NW 20 35 11 19 - - -
24/11:00am - - - - - NW 17 37 9 20 - - -
24/10:30am - - - - - NNW 19 35 10 19 - - -
24/10:00am - - - - - NW 15 32 8 17 - - -
24/09:30am - - - - - WNW 26 52 14 28 - - -
24/09:00am - - - - - NNW 32 54 17 29 - - -
24/08:30am - - - - - NNW 33 61 18 33 - - -
24/08:00am - - - - - NNW 32 52 17 28 - - -
24/07:48am - - - - - NNW 28 48 15 26 - - -
24/07:30am - - - - - NNW 20 35 11 19 - - -
24/07:00am - - - - - NNW 22 35 12 19 - - -
24/06:30am - - - - - NNW 20 37 11 20 - - -
24/06:00am - - - - - NNW 22 41 12 22 - - -
24/05:30am - - - - - NNW 19 30 10 16 - - -
24/05:00am - - - - - NNW 17 32 9 17 - - -
24/04:30am - - - - - NNW 17 28 9 15 - - -
24/04:00am - - - - - NNW 17 30 9 16 - - -
24/03:30am - - - - - NNW 15 28 8 15 - - -
24/03:00am - - - - - NNW 17 26 9 14 - - -
24/02:30am - - - - - N 15 28 8 15 - - -
24/02:00am - - - - - N 13 32 7 17 - - -
24/01:30am - - - - - N 13 28 7 15 - - -
24/01:00am - - - - - NNW 11 22 6 12 - - -
24/12:30am - - - - - N 9 17 5 9 - - -
24/12:00am - - - - - N 7 17 4 9 - - -
 
Date/Time
CST
Temp
°C
App
Temp
°C
Dew
Point
°C
Rel
Hum
%
Delta-T
°C
Wind Press
QNH
hPa
Press
MSL
hPa
Rain since
9am
mm
Dir  Spd
km/h
Gust
km/h
Spd
kts
Gust
kts
23/11:30pm - - - - - NW 17 26 9 14 - - -
23/11:00pm - - - - - NNW 15 26 8 14 - - -
23/10:30pm - - - - - NNW 13 26 7 14 - - -
23/10:00pm - - - - - NW 15 24 8 13 - - -
23/09:30pm - - - - - NNW 11 22 6 12 - - -
23/09:00pm - - - - - NNW 9 17 5 9 - - -
23/08:30pm - - - - - NNW 9 15 5 8 - - -
23/08:00pm - - - - - NNW 9 13 5 7 - - -
23/07:30pm - - - - - NNW 6 9 3 5 - - -
23/07:00pm - - - - - NNW 7 11 4 6 - - -
23/06:30pm - - - - - N 2 4 1 2 - - -
23/06:00pm - - - - - N 6 9 3 5 - - -
23/05:30pm - - - - - NW 6 11 3 6 - - -
23/05:00pm - - - - - NW 7 15 4 8 - - -
23/04:30pm - - - - - WNW 6 13 3 7 - - -
23/04:00pm - - - - - NW 6 11 3 6 - - -
23/03:30pm - - - - - NW 9 20 5 11 - - -
23/03:00pm - - - - - WNW 9 19 5 10 - - -
23/02:30pm - - - - - WNW 9 20 5 11 - - -
23/02:00pm - - - - - WNW 11 19 6 10 - - -
23/01:30pm - - - - - W 9 20 5 11 - - -
23/01:00pm - - - - - WNW 11 22 6 12 - - -
23/12:30pm - - - - - WNW 11 20 6 11 - - -
23/12:00pm - - - - - W 9 22 5 12 - - -
23/11:30am - - - - - WNW 9 20 5 11 - - -
23/11:00am - - - - - W 7 17 4 9 - - -
23/10:30am - - - - - WSW 9 19 5 10 - - -
23/10:00am - - - - - W 6 13 3 7 - - -
23/09:30am - - - - - SW 9 22 5 12 - - -
23/09:00am - - - - - SW 9 19 5 10 - - -
23/08:30am - - - - - SW 7 13 4 7 - - -
23/08:00am - - - - - SW 11 17 6 9 - - -
23/07:30am - - - - - SW 11 20 6 11 - - -
23/07:00am - - - - - SW 11 22 6 12 - - -
23/06:30am - - - - - SW 15 26 8 14 - - -
23/06:00am - - - - - SW 13 24 7 13 - - -
23/05:30am - - - - - SW 13 24 7 13 - - -
23/05:00am - - - - - SW 11 20 6 11 - - -
23/04:30am - - - - - W 11 26 6 14 - - -
23/04:00am - - - - - WSW 11 22 6 12 - - -
23/03:30am - - - - - W 11 22 6 12 - - -
23/03:00am - - - - - W 11 20 6 11 - - -
23/02:30am - - - - - W 11 20 6 11 - - -
23/02:00am - - - - - W 11 20 6 11 - - -
23/01:30am - - - - - W 11 22 6 12 - - -
23/01:00am - - - - - W 11 26 6 14 - - -
23/12:30am - - - - - W 17 35 9 19 - - -
23/12:00am - - - - - W 20 46 11 25 - - -
 
Date/Time
CST
Temp
°C
App
Temp
°C
Dew
Point
°C
Rel
Hum
%
Delta-T
°C
Wind Press
QNH
hPa
Press
MSL
hPa
Rain since
9am
mm
Dir  Spd
km/h
Gust
km/h
Spd
kts
Gust
kts
22/11:30pm - - - - - W 24 48 13 26 - - -
22/11:00pm - - - - - WNW 24 59 13 32 - - -
22/10:30pm - - - - - WNW 24 43 13 23 - - -
22/10:00pm - - - - - W 26 57 14 31 - - -
22/09:32pm - - - - - WNW 28 50 15 27 - - -
22/09:30pm - - - - - WNW 26 48 14 26 - - -
22/09:00pm - - - - - WNW 28 50 15 27 - - -
22/08:30pm - - - - - WNW 30 61 16 33 - - -
22/08:10pm - - - - - NW 28 56 15 30 - - -
22/08:00pm - - - - - NW 22 52 12 28 - - -
22/07:33pm - - - - - WNW 28 57 15 31 - - -
22/07:30pm - - - - - WNW 24 57 13 31 - - -
22/07:09pm - - - - - NW 28 57 15 31 - - -
22/07:00pm - - - - - WNW 26 50 14 27 - - -
22/06:30pm - - - - - WNW 28 54 15 29 - - -
22/06:06pm - - - - - WNW 28 70 15 38 - - -
22/06:00pm - - - - - NW 22 52 12 28 - - -
22/05:30pm - - - - - NW 20 46 11 25 - - -
22/05:00pm - - - - - NW 22 46 12 25 - - -
22/04:30pm - - - - - NW 28 59 15 32 - - -
22/04:28pm - - - - - NW 28 59 15 32 - - -
22/04:00pm - - - - - NW 22 46 12 25 - - -
22/03:30pm - - - - - NW 24 52 13 28 - - -
22/03:07pm - - - - - NW 30 48 16 26 - - -
22/03:00pm - - - - - NW 30 46 16 25 - - -
22/02:51pm - - - - - NW 28 46 15 25 - - -
22/02:30pm - - - - - NW 26 46 14 25 - - -
22/02:02pm - - - - - NNW 28 50 15 27 - - -
22/02:00pm - - - - - NNW 26 50 14 27 - - -
22/01:30pm - - - - - NW 26 50 14 27 - - -
22/01:00pm - - - - - NW 20 39 11 21 - - -
22/12:40pm - - - - - NW 28 46 15 25 - - -
22/12:30pm - - - - - NNW 26 48 14 26 - - -
22/12:00pm - - - - - NNW 28 46 15 25 - - -
22/11:30am - - - - - NW 28 48 15 26 - - -
22/11:00am - - - - - NNW 30 54 16 29 - - -
22/10:46am - - - - - NNW 30 48 16 26 - - -
22/10:30am - - - - - NNW 26 39 14 21 - - -
22/10:00am - - - - - NNW 24 43 13 23 - - -
22/09:30am - - - - - NW 24 43 13 23 - - -
22/09:00am - - - - - NW 24 39 13 21 - - -
22/08:30am - - - - - NW 26 43 14 23 - - -
22/08:00am - - - - - NW 20 33 11 18 - - -
22/07:30am - - - - - NW 20 37 11 20 - - -
22/07:00am - - - - - NNW 20 35 11 19 - - -
22/06:30am - - - - - NW 20 35 11 19 - - -
22/06:00am - - - - - NW 19 35 10 19 - - -
22/05:30am - - - - - NW 19 35 10 19 - - -
22/05:00am - - - - - NNW 20 39 11 21 - - -
22/04:30am - - - - - NNW 20 32 11 17 - - -

Latest Capital City Observations: Canberra | Sydney | Melbourne | Brisbane | Adelaide | Perth | Hobart | Darwin

Other Formats:

Comma delimited format used in spreadsheet applications
http://www.bom.gov.au/fwo/IDS60901/IDS60901.95679.axf

JavaScript Object Notation format (JSON) in row-major order
http://www.bom.gov.au/fwo/IDS60901/IDS60901.95679.json